DW5852 Weather Reports


Display with metric or nautical units.
time (UTC)temp
F
wind
direction
speed
MPH
gust
MPH
rain 1hr
in
rain 24hr
in
rain mn
in
humidity
%
barometer
mb
20260507081711 38 335 0.0 0.0 0.00 0.00 0.00 60 1022.5
20260507081211 37 325 0.0 0.0 0.00 0.00 0.00 61 1022.5
20260507080714 37 325 0.0 0.0 0.00 0.00 0.00 61 1022.5
20260507080214 37 249 0.0 0.0 0.00 0.00 0.00 61 1022.5
20260507075711 37 310 0.0 0.0 0.00 0.00 0.00 62 1022.6
20260507075214 37 305 0.0 0.0 0.00 0.00 0.00 63 1022.7
20260507074711 38 314 0.0 0.0 0.00 0.00 0.00 63 1022.9
20260507074211 38 314 0.0 0.0 0.00 0.00 0.00 62 1023.0
20260507073711 39 314 0.0 0.0 0.00 0.00 0.00 63 1023.0
20260507073211 38 37 0.0 0.0 0.00 0.00 0.00 64 1022.9
20260507072714 38 305 0.0 0.0 0.00 0.00 0.00 65 1023.0
20260507072214 37 308 0.0 0.0 0.00 0.00 0.00 66 1023.0
20260507071714 37 348 0.0 0.0 0.00 0.00 0.00 68 1023.0
20260507071214 37 349 0.0 0.0 0.00 0.00 0.00 69 1023.1
20260507070714 37 5 0.0 0.0 0.00 0.00 0.00 68 1023.1
20260507070211 38 11 0.0 0.0 0.00 0.00 0.00 67 1023.0
20260507065714 38 12 0.0 0.0 0.00 0.00 0.00 67 1022.9
20260507065214 38 15 0.0 0.0 0.00 0.00 0.00 67 1022.9
20260507064711 38 6 0.0 0.0 0.00 0.00 0.00 66 1023.0
20260507064211 38 305 0.0 0.0 0.00 0.00 0.00 66 1023.1
20260507063711 38 15 0.0 0.0 0.00 0.00 0.00 66 1023.0
20260507063211 38 332 0.0 0.0 0.00 0.00 0.00 66 1023.1
20260507062711 39 331 0.0 1.0 0.00 0.00 0.00 65 1023.1
20260507062211 39 335 0.0 0.0 0.00 0.00 0.00 63 1023.2
20260507061714 40 10 0.0 2.0 0.00 0.00 0.00 63 1023.1
20260507061214 40 30 1.0 1.0 0.00 0.00 0.00 62 1023.3
20260507060714 40 18 0.0 1.0 0.00 0.00 0.00 62 1023.3
20260507060211 40 11 0.0 1.0 0.00 0.00 0.00 62 1023.3
20260507055711 40 58 0.0 0.0 0.00 0.00 0.00 62 1023.3
20260507055211 39 30 0.0 1.0 0.00 0.00 0.00 63 1023.3
20260507054714 39 314 0.0 0.0 0.00 0.00 0.00 62 1023.3
20260507054214 40 314 0.0 0.0 0.00 0.00 0.00 60 1023.3
20260507053711 40 313 0.0 0.0 0.00 0.00 0.00 59 1023.3
20260507053211 40 314 0.0 0.0 0.00 0.00 0.00 60 1023.3
20260507052711 40 300 0.0 0.0 0.00 0.00 0.00 59 1023.3
20260507052214 40 90 0.0 0.0 0.00 0.00 0.00 59 1023.3
20260507051711 40 318 0.0 0.0 0.00 0.00 0.00 57 1023.4
20260507051214 40 317 0.0 0.0 0.00 0.00 0.00 58 1023.4
20260507050714 40 36 0.0 0.0 0.00 0.00 0.00 56 1023.5
20260507050214 40 343 0.0 0.0 0.00 0.00 0.00 59 1023.5
20260507045711 39 359 0.0 0.0 0.00 0.00 0.00 59 1023.5
20260507045214 39 8 0.0 0.0 0.00 0.00 0.00 61 1023.5
20260507044711 39 8 0.0 0.0 0.00 0.00 0.00 67 1023.5
20260507044214 39 8 0.0 0.0 0.00 0.00 0.00 72 1023.5
20260507043714 38 8 0.0 0.0 0.00 0.00 0.00 72 1023.4
20260507043211 38 8 0.0 0.0 0.00 0.00 0.00 73 1023.5
20260507042711 38 8 0.0 0.0 0.00 0.00 0.00 72 1023.4
20260507042211 39 8 0.0 0.0 0.00 0.00 0.00 71 1023.5
20260507041714 39 8 0.0 0.0 0.00 0.00 0.00 71 1023.5
20260507041214 39 7 0.0 0.0 0.00 0.00 0.00 71 1023.4
20260507040714 39 8 0.0 0.0 0.00 0.00 0.00 71 1023.4
20260507040211 39 8 0.0 0.0 0.00 0.00 0.00 71 1023.4
20260507035711 39 20 0.0 0.0 0.00 0.00 0.00 70 1023.4
20260507035214 40 30 0.0 0.0 0.00 0.00 0.00 70 1023.3
20260507034711 40 16 0.0 0.0 0.00 0.00 0.00 69 1023.2
20260507034214 40 74 0.0 1.0 0.00 0.00 0.00 69 1023.3
20260507033711 40 18 0.0 1.0 0.00 0.00 0.00 68 1023.2
20260507033211 40 33 0.0 0.0 0.00 0.00 0.00 67 1023.2
20260507032711 41 1 0.0 1.0 0.00 0.00 0.00 67 1023.1
20260507032211 41 18 0.0 1.0 0.00 0.00 0.00 67 1023.1
20260507031711 41 48 0.0 0.0 0.00 0.00 0.00 66 1023.0
20260507031214 41 4 0.0 1.0 0.00 0.01 0.00 65 1023.0
20260507030714 41 36 0.0 0.0 0.00 0.01 0.00 64 1022.9
20260507030211 42 37 0.0 1.0 0.00 0.01 0.00 62 1022.9
20260507025711 42 49 0.0 7.0 0.00 0.01 0.00 60 1022.8
20260507025211 43 335 0.0 4.0 0.00 0.01 0.00 57 1022.7
20260507024711 44 357 0.0 15.0 0.00 0.01 0.00 52 1022.5
20260507024211 46 35 8.0 11.0 0.00 0.02 0.00 45 1022.3
20260507023714 47 52 0.0 0.0 0.00 0.02 0.00 36 1022.0
20260507023214 47 238 0.0 0.0 0.00 0.02 0.00 36 1021.8
20260507022714 48 238 0.0 0.0 0.00 0.02 0.00 35 1021.7
20260507022214 48 238 0.0 0.0 0.00 0.02 0.00 35 1021.6
20260507021714 48 238 0.0 0.0 0.00 0.02 0.00 34 1021.4
20260507021214 49 342 0.0 0.0 0.00 0.02 0.00 34 1021.4
20260507020714 49 308 0.0 1.0 0.00 0.02 0.00 33 1021.2
20260507020211 49 304 0.0 1.0 0.00 0.02 0.00 33 1021.1
20260507015711 49 278 0.0 12.0 0.00 0.02 0.00 33 1020.9
20260507015211 49 281 0.0 12.0 0.00 0.02 0.00 33 1020.8
20260507014714 49 286 0.0 12.0 0.00 0.02 0.00 33 1020.8
20260507014214 49 258 0.0 3.0 0.00 0.02 0.00 34 1020.7
20260507013714 50 273 0.0 7.0 0.00 0.02 0.00 34 1020.5
20260507013211 50 308 0.0 12.0 0.00 0.02 0.00 35 1020.4
20260507012714 50 235 0.0 4.0 0.00 0.02 0.00 38 1020.3
20260507012214 50 250 0.0 11.0 0.00 0.02 0.00 38 1020.2
20260507011711 50 212 0.0 6.0 0.00 0.02 0.00 38 1020.1
20260507010711 50 302 0.0 3.0 0.00 0.02 0.00 40 1019.8
20260507010211 51 262 0.0 7.0 0.00 0.02 0.00 40 1019.7
20260507005711 51 293 0.0 5.0 0.00 0.02 0.00 40 1019.7
20260507005211 51 262 0.0 18.0 0.00 0.02 0.00 39 1019.8
20260507004711 50 226 1.0 12.0 0.00 0.02 0.00 40 1019.9
20260507004214 50 252 6.0 16.0 0.00 0.02 0.00 40 1019.9
20260507003711 50 242 4.0 13.0 0.00 0.02 0.00 40 1020.0
20260507003214 51 240 0.0 14.0 0.00 0.02 0.00 38 1019.8
20260507002711 52 263 2.0 15.0 0.00 0.02 0.00 36 1019.6
20260507002211 53 288 11.0 11.0 0.00 0.02 0.00 35 1019.6
20260507001711 54 238 0.0 1.0 0.00 0.02 0.00 35 1019.4
20260507001214 54 330 0.0 8.0 0.00 0.02 0.00 35 1019.2
20260507000714 54 274 0.0 11.0 0.00 0.02 0.00 35 1019.1
20260507000214 54 248 0.0 14.0 0.00 0.02 0.00 34 1019.0
20260506235714 54 105 1.0 12.0 0.00 0.02 0.00 34 1018.8
20260506235214 54 200 7.0 16.0 0.00 0.02 0.00 33 1018.8
20260506234711 55 250 10.0 18.0 0.00 0.02 0.00 32 1018.6
20260506234214 57 221 1.0 10.0 0.00 0.02 0.00 32 1018.3
20260506233714 56 239 0.0 10.0 0.00 0.02 0.00 33 1018.1
20260506233214 56 229 0.0 18.0 0.00 0.02 0.00 33 1018.0
20260506232714 55 250 6.0 16.0 0.00 0.02 0.00 34 1018.0
20260506232214 54 291 0.0 8.0 0.00 0.02 0.00 35 1017.8
20260506231714 54 258 3.0 16.0 0.00 0.02 0.00 34 1017.7
20260506231211 55 218 8.0 13.0 0.00 0.02 0.00 34 1017.6
20260506230711 56 354 0.0 12.0 0.00 0.02 0.00 33 1017.4
20260506230211 55 277 0.0 12.0 0.00 0.02 0.00 34 1017.2
20260506225714 55 229 12.0 14.0 0.00 0.02 0.00 33 1017.2
20260506225211 56 229 13.0 16.0 0.00 0.02 0.00 34 1017.1
20260506224714 56 293 0.0 14.0 0.00 0.02 0.00 33 1016.9
20260506224211 56 249 9.0 17.0 0.00 0.02 0.00 34 1016.7
20260506223714 56 235 10.0 19.0 0.00 0.02 0.00 36 1016.4
20260506223214 55 262 13.0 16.0 0.00 0.02 0.00 36 1016.4
20260506222714 56 263 1.0 18.0 0.00 0.02 0.00 39 1016.1
20260506222211 55 200 3.0 26.0 0.00 0.02 0.00 39 1016.2
20260506221711 54 257 6.0 18.0 0.00 0.02 0.00 40 1016.1
20260506221214 54 236 12.0 21.0 0.00 0.02 0.00 42 1015.9
20260506220711 54 262 6.0 18.0 0.00 0.02 0.00 43 1015.9
20260506220214 53 219 0.0 20.0 0.00 0.02 0.00 44 1015.9
20260506215711 53 215 3.0 17.0 0.00 0.02 0.00 44 1015.8
20260506215211 53 319 0.0 10.0 0.00 0.02 0.00 45 1015.9
20260506214711 52 245 4.0 20.0 0.00 0.02 0.00 46 1016.0
20260506214214 52 15 0.0 16.0 0.00 0.02 0.00 46 1016.0
20260506213711 51 257 0.0 14.0 0.00 0.02 0.00 49 1016.1
20260506213214 51 276 0.0 20.0 0.00 0.02 0.00 49 1016.1
20260506212714 52 226 0.0 21.0 0.00 0.02 0.00 52 1016.0
20260506212214 56 242 2.0 20.0 0.00 0.02 0.00 41 1015.5
20260506211711 58 259 0.0 5.0 0.00 0.02 0.00 32 1015.0
20260506211211 59 284 0.0 3.0 0.00 0.02 0.00 32 1014.8
20260506210714 59 263 2.0 5.0 0.00 0.02 0.00 32 1014.7
20260506210214 60 229 0.0 14.0 0.00 0.02 0.00 32 1014.6
20260506205714 59 294 1.0 9.0 0.00 0.02 0.00 33 1014.5
20260506205214 60 145 7.0 15.0 0.00 0.02 0.00 34 1014.5
20260506204711 59 276 0.0 9.0 0.00 0.02 0.00 32 1014.4
20260506204211 59 304 0.0 6.0 0.00 0.02 0.00 35 1014.4
20260506203715 58 288 1.0 13.0 0.00 0.02 0.00 34 1014.3
20260506203214 58 287 0.0 8.0 0.00 0.02 0.00 35 1014.3
20260506202711 58 276 0.0 18.0 0.00 0.02 0.00 34 1014.3
20260506202214 59 256 3.0 4.0 0.00 0.02 0.00 33 1014.1
20260506201714 58 300 2.0 12.0 0.00 0.02 0.00 33 1014.0
20260506201214 58 246 0.0 7.0 0.00 0.02 0.00 34 1014.0
20260506200711 57 201 0.0 9.0 0.00 0.02 0.00 37 1014.0
20260506200211 55 273 0.0 8.0 0.00 0.02 0.00 42 1014.0
20260506195714 54 245 0.0 11.0 0.00 0.02 0.00 43 1014.0
20260506195214 53 262 0.0 11.0 0.00 0.02 0.00 43 1014.0
20260506194711 53 264 0.0 0.0 0.00 0.02 0.00 46 1014.0
20260506194211 52 229 0.0 0.0 0.00 0.02 0.00 47 1014.0
20260506193711 52 191 0.0 0.0 0.00 0.02 0.00 51 1014.1
20260506193211 50 113 0.0 0.0 0.00 0.02 0.00 52 1014.2
20260506192711 49 177 0.0 0.0 0.00 0.02 0.00 54 1014.2
20260506192214 49 284 0.0 1.0 0.00 0.02 0.00 54 1014.5
20260506191711 51 250 0.0 5.0 0.00 0.02 0.00 51 1014.6
20260506191211 53 296 0.0 4.0 0.00 0.02 0.00 45 1014.4
20260506190711 54 276 0.0 4.0 0.00 0.02 0.00 42 1014.1
20260506190211 55 253 0.0 8.0 0.00 0.02 0.00 41 1013.8
20260506185715 55 261 0.0 1.0 0.00 0.02 0.00 39 1013.7
20260506185214 55 229 0.0 1.0 0.00 0.02 0.00 40 1013.7
20260506184711 55 218 0.0 4.0 0.00 0.02 0.00 39 1013.8
20260506184214 56 239 0.0 3.0 0.00 0.02 0.00 39 1013.7
20260506183714 57 250 0.0 4.0 0.00 0.02 0.00 38 1013.8
20260506183214 57 205 0.0 3.0 0.00 0.02 0.00 39 1013.8
20260506182714 56 239 0.0 8.0 0.00 0.02 0.00 39 1013.6
20260506182211 57 294 0.0 10.0 0.00 0.02 0.00 38 1013.5
20260506181714 57 266 0.0 7.0 0.00 0.02 0.00 38 1013.5
20260506181211 57 229 0.0 5.0 0.00 0.02 0.00 38 1013.5
20260506180711 56 293 0.0 13.0 0.00 0.02 0.00 38 1013.4
20260506180214 56 258 0.0 6.0 0.00 0.02 0.00 39 1013.3
20260506175711 55 354 5.0 10.0 0.00 0.02 0.00 37 1013.3
20260506175214 55 257 0.0 8.0 0.00 0.02 0.00 38 1013.3
20260506174711 55 232 0.0 6.0 0.00 0.02 0.00 38 1013.4
20260506174214 54 240 0.0 9.0 0.00 0.02 0.00 38 1013.2
20260506173714 55 337 0.0 9.0 0.00 0.02 0.00 38 1013.1
20260506173211 54 277 0.0 4.0 0.00 0.02 0.00 39 1013.1
20260506172714 54 257 0.0 3.0 0.00 0.02 0.00 39 1013.1
20260506172214 54 229 0.0 1.0 0.00 0.02 0.00 40 1012.9
20260506171714 54 253 0.0 5.0 0.00 0.02 0.00 39 1012.9
20260506171211 54 250 0.0 2.0 0.00 0.02 0.00 40 1012.8
20260506170714 53 245 0.0 1.0 0.00 0.02 0.00 41 1012.7
20260506170211 53 219 0.0 1.0 0.00 0.02 0.00 40 1012.6
20260506165711 53 328 0.0 1.0 0.00 0.02 0.00 39 1012.6
20260506165211 54 256 0.0 2.0 0.00 0.02 0.00 43 1012.5
20260506164714 53 238 0.0 5.0 0.00 0.02 0.00 43 1012.3
20260506164211 53 233 0.0 1.0 0.00 0.02 0.00 42 1012.3
20260506163714 52 308 0.0 1.0 0.00 0.02 0.00 42 1012.2
20260506163214 52 305 0.0 1.0 0.00 0.02 0.00 46 1012.2
20260506162714 51 219 0.0 0.0 0.00 0.02 0.00 47 1012.1
20260506162211 51 134 0.0 1.0 0.00 0.02 0.00 47 1012.1
20260506161714 51 259 0.0 5.0 0.00 0.02 0.00 46 1012.2
20260506161214 51 266 0.0 0.0 0.00 0.02 0.00 48 1012.2
20260506160711 50 226 0.0 0.0 0.00 0.02 0.00 48 1012.1
20260506160211 50 258 0.0 4.0 0.00 0.02 0.00 49 1012.2
20260506155714 50 222 0.0 4.0 0.00 0.02 0.00 48 1012.2
20260506155211 50 222 0.0 0.0 0.00 0.02 0.00 51 1012.3
20260506154711 49 87 0.0 0.0 0.00 0.02 0.00 54 1012.3
20260506154211 49 49 0.0 0.0 0.00 0.02 0.00 53 1012.1
20260506153711 49 53 0.0 0.0 0.00 0.02 0.00 55 1012.3
20260506153214 48 160 0.0 0.0 0.00 0.02 0.00 56 1012.5
20260506152714 47 97 0.0 0.0 0.00 0.02 0.00 57 1012.5
20260506152214 46 83 0.0 0.0 0.00 0.02 0.00 58 1012.6
20260506151711 46 80 0.0 0.0 0.00 0.02 0.00 60 1012.5
20260506151214 45 104 0.0 0.0 0.00 0.02 0.00 60 1012.6
20260506150711 46 70 0.0 0.0 0.00 0.02 0.00 60 1012.6
20260506150211 46 68 0.0 0.0 0.00 0.02 0.00 60 1012.6
20260506145714 46 16 0.0 0.0 0.00 0.02 0.00 61 1012.6
20260506145214 45 65 0.0 0.0 0.00 0.02 0.00 60 1012.6
20260506144714 46 68 0.0 0.0 0.00 0.02 0.00 57 1012.7
20260506144214 47 77 0.0 0.0 0.00 0.02 0.00 57 1012.6
20260506143714 47 110 0.0 0.0 0.00 0.02 0.00 55 1012.5
20260506143214 46 259 0.0 0.0 0.00 0.02 0.00 53 1012.5
20260506142714 47 359 0.0 0.0 0.00 0.02 0.00 53 1012.5
20260506142211 47 12 0.0 0.0 0.00 0.02 0.00 53 1012.4
20260506141711 47 96 0.0 0.0 0.00 0.02 0.00 54 1012.3
20260506141211 46 197 0.0 0.0 0.00 0.02 0.00 54 1012.2
20260506140711 45 169 0.0 0.0 0.00 0.02 0.00 58 1012.2
20260506140214 44 148 0.0 0.0 0.00 0.02 0.00 59 1012.2
20260506135711 43 256 0.0 0.0 0.00 0.02 0.00 61 1012.0
20260506135214 41 173 0.0 0.0 0.00 0.02 0.00 63 1012.1
20260506134711 41 228 0.0 0.0 0.00 0.02 0.00 64 1012.2
20260506134211 41 256 0.0 0.0 0.00 0.02 0.00 63 1012.3
20260506133711 41 252 0.0 0.0 0.00 0.02 0.00 62 1012.3
20260506133211 42 248 0.0 0.0 0.00 0.02 0.00 62 1012.2
20260506132714 42 187 0.0 0.0 0.00 0.02 0.00 62 1012.2
20260506132211 42 188 0.0 0.0 0.00 0.02 0.00 62 1012.2
20260506131714 42 11 0.0 0.0 0.00 0.02 0.00 62 1012.2
20260506131211 42 9 0.0 0.0 0.00 0.02 0.00 65 1012.1
20260506130711 41 39 0.0 0.0 0.00 0.02 0.00 64 1012.2
20260506130214 40 87 0.0 0.0 0.00 0.02 0.00 68 1012.1
20260506125714 39 177 0.0 0.0 0.00 0.02 0.00 70 1012.1
20260506125211 39 86 0.0 0.0 0.00 0.02 0.00 69 1012.1
20260506124711 39 153 0.0 0.0 0.00 0.02 0.00 69 1012.1
20260506124214 39 149 0.0 0.0 0.00 0.02 0.00 68 1012.0
20260506123711 39 156 0.0 0.0 0.00 0.02 0.00 68 1012.1
20260506123214 39 156 0.0 0.0 0.00 0.02 0.00 68 1012.1
20260506122711 39 0 0.0 0.0 0.00 0.02 0.00 69 1012.1
20260506122214 39 80 0.0 0.0 0.00 0.02 0.00 70 1012.1
20260506121714 39 9 0.0 0.0 0.00 0.02 0.00 69 1012.1
20260506121214 39 352 0.0 0.0 0.00 0.02 0.00 68 1012.0
20260506120714 39 290 0.0 0.0 0.00 0.02 0.00 68 1012.0
20260506120211 40 290 0.0 0.0 0.00 0.02 0.00 67 1012.1
20260506115714 40 263 0.0 0.0 0.00 0.02 0.00 66 1012.1
20260506115214 39 260 0.0 0.0 0.00 0.02 0.00 68 1012.2
20260506114711 39 160 0.0 0.0 0.00 0.02 0.00 68 1012.2
20260506114211 39 142 0.0 0.0 0.00 0.02 0.00 68 1012.3
20260506113711 39 155 0.0 0.0 0.00 0.02 0.00 67 1012.2
20260506113214 39 139 0.0 0.0 0.00 0.02 0.00 68 1012.2
20260506112714 39 162 0.0 0.0 0.00 0.02 0.00 68 1012.2
20260506112211 39 200 0.0 0.0 0.00 0.02 0.00 68 1012.4
20260506111711 39 163 0.0 0.0 0.00 0.02 0.00 68 1012.4
20260506111211 39 174 0.0 0.0 0.00 0.02 0.00 67 1012.4
20260506110711 39 170 0.0 0.0 0.00 0.02 0.00 67 1012.4
20260506110211 39 153 0.0 0.0 0.00 0.02 0.00 67 1012.4
20260506105711 39 253 0.0 0.0 0.00 0.02 0.00 67 1012.4
20260506105214 39 249 0.0 0.0 0.00 0.02 0.00 67 1012.6
20260506104711 39 259 0.0 0.0 0.00 0.02 0.00 66 1012.8
20260506104211 39 243 0.0 0.0 0.00 0.02 0.00 67 1013.0
20260506103714 39 250 0.0 0.0 0.00 0.02 0.00 67 1013.1
20260506103214 38 256 0.0 0.0 0.00 0.02 0.00 68 1013.2
20260506102711 38 260 0.0 0.0 0.00 0.02 0.00 70 1013.3
20260506102211 37 242 0.0 0.0 0.00 0.02 0.00 71 1013.2
20260506101711 37 242 0.0 0.0 0.00 0.02 0.00 71 1013.3
20260506101211 37 158 0.0 0.0 0.00 0.02 0.00 70 1013.3
20260506100714 37 158 0.0 0.0 0.00 0.02 0.00 71 1013.5
20260506100211 37 142 0.0 0.0 0.00 0.02 0.00 72 1013.7
20260506095711 37 155 0.0 0.0 0.00 0.02 0.00 72 1013.7
20260506095214 37 155 0.0 0.0 0.00 0.02 0.00 72 1013.7
20260506094714 37 166 0.0 0.0 0.00 0.02 0.00 71 1013.7
20260506094214 37 166 0.0 0.0 0.00 0.02 0.00 71 1013.8
20260506093711 37 166 0.0 0.0 0.00 0.02 0.00 71 1013.8
20260506093214 37 166 0.0 0.0 0.00 0.02 0.00 71 1013.8
20260506092714 38 166 0.0 0.0 0.00 0.02 0.00 70 1013.8
20260506092211 38 166 0.0 0.0 0.00 0.02 0.00 71 1013.8
20260506091714 38 142 0.0 0.0 0.00 0.02 0.00 71 1013.8
20260506091214 38 155 0.0 0.0 0.00 0.02 0.00 72 1013.8
20260506090714 38 176 0.0 0.0 0.00 0.02 0.00 73 1014.0
20260506090211 38 160 0.0 0.0 0.00 0.02 0.00 73 1014.2
20260506085714 38 167 0.0 0.0 0.00 0.02 0.00 74 1014.2
20260506085214 38 153 0.0 0.0 0.00 0.02 0.00 76 1014.4
20260506084711 38 197 0.0 0.0 0.00 0.02 0.00 74 1014.5
20260506084211 38 145 0.0 0.0 0.00 0.02 0.00 76 1014.6
20260506083714 38 183 0.0 0.0 0.00 0.02 0.00 76 1014.7
20260506083214 38 149 0.0 0.0 0.00 0.02 0.00 77 1014.8
20260506082714 38 150 0.0 0.0 0.00 0.02 0.00 79 1014.9
20260506082211 37 158 0.0 0.0 0.00 0.02 0.00 80 1015.0